DW9246 Weather Reports


Display with metric or nautical units.
time (UTC)temp
F
wind
direction
speed
MPH
gust
MPH
rain 1hr
in
rain 24hr
in
rain mn
in
humidity
%
barometer
mb
20260507120017 62 152 7.0 13.0 0.00 0.00 0.00 72 1014.3
20260507115016 62 162 10.0 18.0 0.00 0.00 0.00 72 1014.2
20260507112016 62 149 7.0 14.0 0.00 0.00 0.00 71 1014.4
20260507110017 61 154 7.0 13.0 0.00 0.00 0.00 74 1014.6
20260507105016 61 152 8.0 15.0 0.00 0.00 0.00 74 1014.6
20260507104016 61 155 10.0 15.0 0.00 0.00 0.00 74 1014.8
20260507103019 61 158 9.0 15.0 0.00 0.00 0.00 76 1014.7
20260507100021 62 149 6.0 13.0 0.00 0.00 0.00 73 1014.7
20260507094014 62 149 6.0 11.0 0.00 0.00 0.00 73 1014.9
20260507093016 62 136 5.0 12.0 0.00 0.00 0.00 73 1014.8
20260507092016 62 152 5.0 12.0 0.00 0.00 0.00 73 1014.8
20260507091016 61 144 3.0 8.0 0.00 0.00 0.00 72 1014.8
20260507090015 62 81 1.0 4.0 0.00 0.00 0.00 72 1014.8
20260507085016 62 111 3.0 6.0 0.00 0.00 0.00 72 1014.9
20260507083016 61 115 5.0 10.0 0.00 0.00 0.00 72 1014.6
20260507082016 60 100 4.0 10.0 0.00 0.00 0.00 75 1014.5
20260507081016 60 76 4.0 10.0 0.00 0.00 0.00 76 1014.4
20260507080017 60 106 4.0 9.0 0.00 0.00 0.00 77 1014.6
20260507075016 59 79 3.0 8.0 0.00 0.00 0.00 79 1014.7
20260507074015 58 100 5.0 9.0 0.00 0.00 0.00 78 1014.7
20260507073016 59 87 6.0 9.0 0.00 0.00 0.00 77 1014.9
20260507072016 59 97 4.0 9.0 0.00 0.00 0.00 76 1014.9
20260507071019 59 101 4.0 9.0 0.00 0.00 0.00 76 1014.8
20260507070018 59 116 3.0 9.0 0.00 0.00 0.00 76 1014.8
20260507065016 58 104 4.0 8.0 0.00 0.00 0.00 75 1014.8
20260507064016 59 111 4.0 8.0 0.00 0.00 0.00 73 1014.6
20260507063016 60 104 3.0 7.0 0.00 0.00 0.00 73 1014.4
20260507062016 59 72 2.0 6.0 0.00 0.00 0.00 72 1014.4
20260507061017 58 350 0.0 2.0 0.00 0.00 0.00 77 1014.2
20260507060021 56 350 0.0 1.0 0.00 0.00 0.00 79 1014.0
20260507055022 55 350 2.0 3.0 0.00 0.00 0.00 80 1014.0
20260507054017 54 349 2.0 3.0 0.00 0.00 0.00 80 1013.7
20260507053016 53 349 2.0 4.0 0.00 0.00 0.00 80 1013.8
20260507052017 53 349 3.0 5.0 0.00 0.00 0.00 80 1013.6
20260507051015 52 349 3.0 4.0 0.00 0.00 0.00 81 1013.6
20260507050019 52 349 3.0 4.0 0.00 0.00 0.00 81 1013.7
20260507045016 52 349 3.0 4.0 0.00 0.00 0.00 82 1013.5
20260507043017 52 349 3.0 5.0 0.00 0.00 0.00 83 1013.6
20260507041016 52 349 4.0 5.0 0.00 0.00 0.00 83 1013.7
20260507040023 53 349 3.0 4.0 0.00 0.00 0.00 84 1013.7
20260507034017 53 350 4.0 5.0 0.00 0.00 0.00 83 1013.6
20260507033016 53 350 3.0 5.0 0.00 0.00 0.00 83 1013.6
20260507031016 52 350 3.0 4.0 0.00 0.00 0.00 83 1013.5
20260507024017 53 349 3.0 5.0 0.00 0.00 0.00 82 1013.6
20260507023017 53 350 3.0 5.0 0.00 0.00 0.00 83 1013.6
20260507022016 53 349 3.0 5.0 0.00 0.00 0.00 83 1013.5
20260507021018 53 350 2.0 4.0 0.00 0.00 0.00 83 1013.5
20260507020018 53 349 3.0 5.0 0.00 0.00 0.00 83 1013.4
20260507015016 53 350 4.0 5.0 0.00 0.00 0.00 83 1013.4
20260507014016 53 349 3.0 4.0 0.00 0.00 0.00 83 1013.4
20260507013015 53 349 3.0 4.0 0.00 0.00 0.00 82 1013.4
20260507012019 53 349 3.0 4.0 0.00 0.00 0.00 83 1013.5
20260507011016 54 349 3.0 4.0 0.00 0.00 0.00 83 1013.4
20260507010017 53 349 3.0 4.0 0.00 0.00 0.00 83 1013.4
20260507005015 53 350 3.0 5.0 0.00 0.00 0.00 83 1013.6
20260507004017 53 349 3.0 4.0 0.00 0.00 0.00 83 1013.9
20260507003016 53 349 4.0 5.0 0.00 0.00 0.00 82 1013.9
20260507002015 53 349 4.0 5.0 0.00 0.00 0.00 82 1013.9
20260507001017 53 349 3.0 5.0 0.00 0.00 0.00 82 1014.0
20260507000020 53 349 4.0 5.0 0.00 0.00 0.00 82 1013.9
20260506234016 53 349 3.0 5.0 0.00 0.00 0.00 82 1014.0
20260506233018 54 349 4.0 5.0 0.00 0.00 0.00 82 1013.9
20260506231016 54 350 3.0 5.0 0.00 0.00 0.00 81 1014.0
20260506230017 54 349 3.0 5.0 0.00 0.00 0.00 81 1014.0
20260506225016 54 349 4.0 6.0 0.00 0.00 0.00 81 1013.8
20260506224019 54 349 4.0 5.0 0.00 0.00 0.00 81 1013.9
20260506223016 54 349 4.0 5.0 0.00 0.00 0.00 81 1013.8
20260506222015 54 349 4.0 5.0 0.00 0.00 0.00 81 1013.7
20260506221016 54 349 4.0 5.0 0.00 0.00 0.00 81 1013.8
20260506220018 55 349 4.0 5.0 0.00 0.00 0.00 81 1013.7
20260506215016 55 350 4.0 5.0 0.00 0.00 0.00 81 1013.9
20260506214016 55 349 3.0 5.0 0.00 0.00 0.00 80 1013.8
20260506213015 55 350 4.0 5.0 0.00 0.00 0.00 80 1013.8
20260506212016 55 356 3.0 5.0 0.00 0.00 0.00 80 1013.7
20260506211015 56 16 3.0 5.0 0.00 0.00 0.00 79 1013.7
20260506205016 56 10 3.0 5.0 0.00 0.00 0.00 80 1013.7
20260506204015 56 349 3.0 4.0 0.00 0.00 0.00 80 1013.6
20260506203016 56 349 3.0 5.0 0.00 0.00 0.00 80 1013.3
20260506200015 56 354 2.0 4.0 0.00 0.00 0.00 79 1013.0
20260506195015 57 350 3.0 4.0 0.00 0.00 0.00 79 1012.8
20260506194015 57 345 2.0 4.0 0.00 0.00 0.00 79 1012.7
20260506193015 58 271 2.0 4.0 0.00 0.00 0.00 78 1012.4
20260506192014 59 169 1.0 5.0 0.00 0.00 0.00 77 1012.5
20260506190019 60 156 2.0 6.0 0.00 0.00 0.00 76 1012.3
20260506185015 60 196 2.0 7.0 0.00 0.00 0.00 76 1012.1
20260506184016 61 168 3.0 7.0 0.00 0.00 0.00 75 1011.8
20260506183015 62 175 2.0 4.0 0.00 0.00 0.00 73 1011.9
20260506182015 62 177 3.0 8.0 0.00 0.00 0.00 72 1011.8
20260506181015 62 190 5.0 10.0 0.00 0.00 0.00 70 1011.7
20260506175015 63 197 5.0 11.0 0.00 0.00 0.00 68 1011.4
20260506174015 63 194 7.0 15.0 0.00 0.00 0.00 66 1011.5
20260506173015 64 196 6.0 16.0 0.00 0.00 0.00 67 1011.4
20260506172015 64 194 8.0 15.0 0.00 0.00 0.00 64 1011.4
20260506171017 65 189 7.0 13.0 0.00 0.00 0.00 69 1011.4
20260506170016 65 182 7.0 14.0 0.00 0.00 0.00 66 1011.2
20260506164015 66 140 7.0 13.0 0.00 0.00 0.00 63 1011.1
20260506163016 67 150 8.0 12.0 0.00 0.00 0.00 63 1011.1
20260506162015 67 135 6.0 11.0 0.00 0.01 0.00 62 1011.1
20260506161015 66 146 6.0 12.0 0.00 0.02 0.00 63 1011.1
20260506160015 67 159 7.0 11.0 0.00 0.02 0.00 58 1011.1
20260506155014 67 130 5.0 9.0 0.00 0.02 0.00 60 1011.0
20260506154015 66 162 4.0 7.0 0.00 0.02 0.00 58 1011.0
20260506150015 66 161 4.0 11.0 0.00 0.02 0.00 58 1011.3
20260506145015 66 156 6.0 13.0 0.00 0.02 0.00 57 1011.3
20260506144015 65 131 4.0 8.0 0.00 0.02 0.00 59 1011.3
20260506143014 65 153 6.0 10.0 0.00 0.02 0.00 60 1011.5
20260506142015 66 161 7.0 13.0 0.00 0.02 0.00 60 1011.5
20260506141015 66 164 9.0 17.0 0.00 0.02 0.00 59 1011.6
20260506140016 66 166 9.0 15.0 0.00 0.02 0.00 60 1011.7
20260506135014 65 160 11.0 17.0 0.00 0.02 0.00 61 1011.8
20260506134015 66 143 9.0 17.0 0.00 0.02 0.00 62 1011.7
20260506133017 66 128 8.0 14.0 0.00 0.02 0.00 60 1011.7
20260506132015 66 138 8.0 21.0 0.00 0.02 0.00 60 1011.9
20260506131016 68 127 6.0 17.0 0.00 0.02 0.00 56 1011.6
20260506130016 67 339 4.0 9.0 0.00 0.02 0.00 52 1012.0
20260506125014 68 301 5.0 11.0 0.00 0.02 0.00 52 1012.2
20260506124014 67 239 7.0 15.0 0.00 0.02 0.00 53 1012.2
20260506123014 67 249 7.0 17.0 0.00 0.02 0.00 52 1012.2
20260506122015 67 233 7.0 14.0 0.00 0.02 0.00 53 1012.2
20260506121015 65 270 7.0 14.0 0.00 0.02 0.00 54 1012.3